QPF
0.00 0.00 0.00 0.00 0.00 0.00 0.00 0.00 0.00 0.00 0.00 0.00 0.00 0.00 0.00 0.00 0.00 0.00 0.00 0.00 0.00 0.00 0.00 0.00 0.00 0.00 0.00 0.01 0.00 0.00 0.00 0.00 0.00 0.00 0.00 0.00 0.00 0.00 0.00 0.00 0.00 0.00 0.00 0.00 0.00 0.00 0.00 0.00 0.00
0.00 0.00 0.00 0.00 0.00 0.00 0.00 0.00 0.00 0.00 0.00 0.00 0.00 0.00 0.00 0.00 0.00 0.00 0.00 0.00 0.00 0.00 0.00 0.00 0.00 0.00 0.00 0.00 0.00 0.00 0.00 0.00 0.00 0.00 0.00 0.00 0.00 0.00 0.01 0.01 0.00 0.00 0.00 0.00 0.00 0.00 0.00 0.00 0.00
0.00 0.00 0.00 0.00 0.00 0.00 0.00 0.00 0.00 0.00 0.00 0.00 0.00 0.00 0.00 0.00 0.00 0.00 0.00 0.01 0.00 0.00 0.00 0.00 0.00 0.00 0.00 0.00 0.00 0.00 0.01 0.01 0.00 0.00 0.00 0.00 0.00 0.00 0.01 0.01 0.00 0.00 0.00 0.00 0.00 0.00 0.00 0.00 0.00
0.00 0.00 0.00 0.00 0.00 0.00 0.00 0.00 0.00 0.00 0.00 0.00 0.00 0.00 0.00 0.00 0.00 0.00 0.00 0.00 0.00 0.00 0.00 0.01 0.00 0.00 0.00 0.00 0.00 0.01 0.01 0.00 0.00 0.00 0.00 0.00 0.00 0.00 0.01 0.00 0.00 0.00 0.00 0.00 0.00 0.00 0.00 0.00 0.00
0.00 0.00 0.00 0.00 0.00 0.00 0.00 0.00 0.00 0.00 0.00 0.00 0.00 0.00 0.00 0.00 0.00 0.00 0.00 0.00 0.00 0.00 0.00 0.01 0.00 0.00 0.00 0.00 0.00 0.00 0.00 0.00 0.00 0.00 0.00 0.00 0.00 0.00 0.01 0.00 0.00 0.00 0.00 0.00 0.00 0.00 0.00 0.00 0.00
0.00 0.00 0.00 0.00 0.00 0.00 0.00 0.00 0.00 0.00 0.00 0.00 0.00 0.00 0.00 0.00 0.00 0.00 0.00 0.00 0.00 0.00 0.00 0.01 0.01 0.00 0.00 0.00 0.00 0.00 0.00 0.00 0.00 0.00 0.01 0.01 0.01 0.01 0.01 0.00 0.00 0.00 0.00 0.00 0.00 0.00 0.00 0.00 0.00
0.00 0.00 0.00 0.00 0.00 0.00 0.00 0.00 0.00 0.00 0.00 0.00 0.00 0.00 0.00 0.00 0.00 0.00 0.00 0.00 0.00 0.00 0.00 0.00 0.00 0.00 0.00 0.00 0.00 0.00 0.00 0.00 0.00 0.00 0.00 0.00 0.01 0.00 0.00 0.00 0.00 0.00 0.00 0.00 0.00 0.00 0.00 0.00 0.00
0.00 0.00 0.00 0.00 0.00 0.00 0.00 0.00 0.00 0.00 0.00 0.00 0.00 0.00 0.00 0.00 0.00 0.00 0.00 0.00 0.00 0.00 0.00 0.00 0.00 0.00 0.00 0.00 0.00 0.00 0.00 0.00 0.00 0.00 0.00 0.00 0.00 0.00 0.00 0.00 0.00 0.00 0.00 0.00 0.00 0.00 0.00 0.00 0.00
0.01 0.00 0.00 0.00 0.00 0.00 0.00 0.00 0.00 0.00 0.00 0.00 0.00 0.00 0.00 0.00 0.00 0.00 0.00 0.00 0.00 0.00 0.00 0.00 0.00 0.00 0.00 0.00 0.00 0.00 0.00 0.00 0.00 0.00 0.00 0.00 0.00 0.00 0.00 0.00 0.00 0.00 0.00 0.00 0.00 0.00 0.00 0.00 0.00
0.03 0.00 0.00 0.00 0.00 0.00 0.00 0.00 0.00 0.00 0.00 0.00 0.03 0.03 0.01 0.00 0.00 0.00 0.00 0.00 0.00 0.00 0.00 0.00 0.00 0.00 0.00 0.00 0.00 0.00 0.00 0.00 0.00 0.00 0.00 0.00 0.00 0.00 0.00 0.00 0.00 0.00 0.00 0.00 0.00 0.00 0.00 0.00 0.00
0.00 0.00 0.00 0.00 0.00 0.00 0.00 0.00 0.00 0.00 0.00 0.00 0.02 0.06 0.05 0.02 0.03 0.02 0.01 0.00 0.00 0.00 0.00 0.00 0.00 0.00 0.00 0.00 0.00 0.00 0.00 0.00 0.00 0.00 0.00 0.00 0.00 0.00 0.00 0.00 0.00 0.00 0.00 0.00 0.00 0.00 0.00 0.00 0.00
0.00 0.00 0.01 0.00 0.00 0.00 0.00 0.00 0.00 0.00 0.00 0.00 0.00 0.07 0.10 0.12 0.11 0.12 0.06 0.04 0.00 0.00 0.00 0.00 0.00 0.00 0.00 0.00 0.00 0.00 0.00 0.00 0.00 0.00 0.00 0.00 0.00 0.00 0.00 0.00 0.00 0.00 0.00 0.00 0.00 0.00 0.00 0.00 0.00
0.00 0.00 0.01 0.00 0.00 0.00 0.00 0.00 0.00 0.00 0.00 0.00 0.00 0.02 0.05 0.08 0.08 0.07 0.06 0.04 0.01 0.00 0.00 0.00 0.00 0.00 0.00 0.00 0.00 0.00 0.00 0.00 0.00 0.00 0.00 0.00 0.00 0.00 0.00 0.00 0.00 0.00 0.00 0.00 0.00 0.00 0.00 0.00 0.00
0.00 0.00 0.00 0.00 0.00 0.00 0.00 0.00 0.00 0.00 0.00 0.00 0.01 0.02 0.07 0.07 0.08 0.05 0.01 0.01 0.00 0.00 0.00 0.00 0.00 0.00 0.00 0.00 0.00 0.00 0.00 0.00 0.00 0.00 0.00 0.00 0.00 0.00 0.00 0.00 0.00 0.00 0.00 0.00 0.00 0.00 0.00 0.00 0.00
0.00 0.01 0.00 0.00 0.00 0.00 0.00 0.00 0.00 0.00 0.00 0.00 0.00 0.02 0.01 0.05 0.03 0.00 0.01 0.02 0.02 0.01 0.00 0.00 0.00 0.00 0.00 0.00 0.00 0.00 0.00 0.00 0.00 0.00 0.00 0.00 0.00 0.00 0.00 0.00 0.00 0.00 0.00 0.00 0.00 0.00 0.00 0.00 0.00
0.01 0.01 0.01 0.00 0.00 0.00 0.00 0.00 0.00 0.00 0.00 0.00 0.00 0.01 0.02 0.01 0.02 0.01 0.00 0.00 0.00 0.02 0.02 0.00 0.00 0.00 0.00 0.00 0.00 0.00 0.00 0.00 0.00 0.00 0.00 0.00 0.00 0.00 0.00 0.00 0.00 0.00 0.00 0.00 0.00 0.00 0.00 0.00 0.00
0.00 0.00 0.00 0.00 0.00 0.00 0.00 0.00 0.00 0.00 0.00 0.00 0.00 0.00 0.00 0.01 0.01 0.00 0.00 0.00 0.00 0.02 0.02 0.00 0.00 0.01 0.00 0.00 0.00 0.00 0.00 0.00 0.00 0.00 0.00 0.00 0.00 0.00 0.00 0.00 0.00 0.00 0.00 0.00 0.00 0.00 0.00 0.00 0.00
0.00 0.00 0.00 0.00 0.00 0.00 0.00 0.00 0.00 0.00 0.00 0.00 0.00 0.00 0.00 0.00 0.00 0.00 0.00 0.00 0.00 0.00 0.00 0.00 0.00 0.00 0.00 0.01 0.01 0.00 0.00 0.00 0.00 0.00 0.00 0.00 0.00 0.00 0.00 0.00 0.00 0.00 0.00 0.00 0.00 0.00 0.00 0.00 0.00
0.00 0.00 0.00 0.00 0.00 0.00 0.00 0.00 0.00 0.00 0.00 0.00 0.00 0.00 0.00 0.00 0.00 0.00 0.00 0.00 0.00 0.00 0.00 0.00 0.00 0.00 0.00 0.00 0.00 0.00 0.00 0.00 0.00 0.00 0.00 0.00 0.00 0.01 0.00 0.00 0.00 0.00 0.00 0.00 0.00 0.00 0.01 0.00 0.01
0.00 0.00 0.00 0.00 0.00 0.00 0.00 0.00 0.00 0.00 0.00 0.00 0.00 0.00 0.00 0.00 0.00 0.00 0.00 0.00 0.00 0.00 0.00 0.00 0.00 0.00 0.00 0.00 0.00 0.00 0.00 0.00 0.00 0.01 0.03 0.03 0.02 0.03 0.02 0.01 0.00 0.00 0.00 0.00 0.00 0.00 0.00 0.00 0.01
0.00 0.00 0.00 0.00 0.00 0.00 0.00 0.00 0.00 0.00 0.00 0.00 0.00 0.00 0.00 0.00 0.00 0.00 0.00 0.00 0.00 0.00 0.00 0.00 0.00 0.00 0.00 0.00 0.00 0.00 0.00 0.00 0.00 0.00 0.00 0.01 0.00 0.00 0.00 0.00 0.00 0.00 0.00 0.00 0.00 0.00 0.00 0.00 0.00
0.00 0.00 0.00 0.00 0.00 0.00 0.00 0.00 0.00 0.00 0.00 0.00 0.00 0.00 0.00 0.00 0.00 0.00 0.00 0.00 0.00 0.00 0.00 0.00 0.00 0.00 0.00 0.00 0.00 0.00 0.00 0.00 0.00 0.00 0.00 0.00 0.00 0.00 0.00 0.00 0.00 0.00 0.00 0.00 0.00 0.00 0.00 0.00 0.00
0.00 0.00 0.00 0.00 0.00 0.00 0.00 0.00 0.00 0.00 0.00 0.00 0.00 0.00 0.00 0.00 0.00 0.00 0.00 0.00 0.00 0.00 0.00 0.00 0.00 0.00 0.00 0.00 0.00 0.00 0.00 0.00 0.00 0.00 0.00 0.00 0.00 0.00 0.00 0.00 0.00 0.00 0.00 0.00 0.00 0.00 0.00 0.00 0.00
0.00 0.00 0.00 0.00 0.00 0.00 0.00 0.00 0.00 0.00 0.00 0.00 0.00 0.00 0.00 0.00 0.00 0.00 0.00 0.00 0.00 0.00 0.00 0.00 0.00 0.00 0.00 0.00 0.00 0.00 0.00 0.00 0.00 0.00 0.00 0.00 0.00 0.00 0.00 0.00 0.00 0.00 0.00 0.00 0.00 0.00 0.00 0.00 0.00
0.00 0.00 0.01 0.00 0.00 0.00 0.00 0.00 0.00 0.00 0.00 0.00 0.00 0.00 0.00 0.00 0.00 0.00 0.00 0.00 0.00 0.00 0.00 0.00 0.00 0.00 0.00 0.00 0.00 0.00 0.00 0.00 0.00 0.00 0.00 0.00 0.00 0.00 0.00 0.00 0.00 0.00 0.00 0.00 0.00 0.00 0.00 0.00 0.00
0.00 0.00 0.00 0.00 0.00 0.00 0.00 0.00 0.00 0.00 0.00 0.00 0.00 0.00 0.00 0.00 0.00 0.00 0.00 0.00 0.00 0.00 0.00 0.00 0.00 0.00 0.00 0.00 0.00 0.00 0.00 0.00 0.00 0.00 0.00 0.00 0.00 0.00 0.00 0.00 0.00 0.00 0.00 0.00 0.00 0.00 0.00 0.00 0.00
0.00 0.00 0.00 0.00 0.00 0.00 0.00 0.00 0.00 0.00 0.00 0.00 0.00 0.00 0.00 0.00 0.00 0.00 0.00 0.00 0.00 0.00 0.00 0.00 0.00 0.00 0.00 0.00 0.00 0.00 0.00 0.00 0.00 0.00 0.00 0.00 0.00 0.00 0.00 0.00 0.00 0.00 0.00 0.00 0.00 0.00 0.00 0.00 0.00
0.00 0.00 0.00 0.00 0.00 0.00 0.00 0.00 0.00 0.00 0.00 0.00 0.00 0.00 0.00 0.00 0.00 0.00 0.00 0.00 0.00 0.00 0.00 0.00 0.00 0.00 0.00 0.00 0.00 0.00 0.00 0.00 0.00 0.00 0.00 0.00 0.00 0.00 0.00 0.00 0.00 0.00 0.00 0.00 0.00 0.00 0.00 0.00 0.00
0.00 0.00 0.00 0.00 0.00 0.00 0.00 0.00 0.00 0.00 0.00 0.00 0.00 0.00 0.00 0.00 0.00 0.00 0.00 0.00 0.00 0.00 0.00 0.00 0.00 0.00 0.00 0.00 0.00 0.00 0.00 0.00 0.00 0.00 0.00 0.00 0.00 0.00 0.00 0.00 0.00 0.00 0.00 0.00 0.00 0.00 0.00 0.00 0.00
0.00 0.00 0.00 0.00 0.00 0.00 0.00 0.00 0.00 0.00 0.00 0.00 0.00 0.00 0.00 0.00 0.00 0.00 0.00 0.00 0.00 0.00 0.00 0.00 0.00 0.00 0.00 0.00 0.00 0.00 0.00 0.00 0.00 0.00 0.00 0.00 0.00 0.00 0.00 0.00 0.00 0.00 0.00 0.00 0.00 0.00 0.00 0.00 0.00
MSLP
1013.56 1013.69 1014.05 1014.06 1015.69 1016.59 1016.52 1015.89 1015.11 1014.25 1013.58 1012.54 1012.12 1012.07 1012.48 1012.94 1013.39 1014.46 1013.81 1013.92 1013.98 1014.34 1014.61 1015.01 1015.42 1015.85 1016.18 1016.47 1016.85 1017.16 1017.40 1017.63 1017.79 1018.01 1018.19 1018.31 1018.41 1018.50 1018.65 1018.88 1018.96 1019.15 1019.25 1019.46 1019.61 1019.80 1019.88 1020.04 1020.21
1013.75 1013.87 1014.31 1015.13 1016.28 1017.08 1016.50 1015.55 1015.01 1014.39 1013.65 1012.94 1012.46 1012.34 1012.70 1013.19 1013.27 1013.76 1014.07 1014.06 1013.95 1014.36 1014.70 1015.11 1015.49 1015.89 1016.29 1016.62 1017.10 1017.39 1017.65 1017.86 1018.00 1018.24 1018.37 1018.49 1018.66 1018.71 1018.89 1019.09 1019.26 1019.43 1019.71 1019.93 1020.08 1020.20 1020.27 1020.42 1020.62
1013.90 1014.22 1015.03 1015.91 1016.81 1016.97 1016.12 1015.30 1014.90 1014.18 1013.27 1013.03 1012.79 1012.64 1012.88 1013.31 1013.49 1013.66 1013.59 1013.78 1014.13 1014.61 1014.89 1015.25 1015.59 1016.00 1016.36 1016.75 1017.18 1017.50 1017.83 1017.97 1018.18 1018.49 1018.61 1018.72 1018.86 1018.95 1019.05 1019.36 1019.57 1019.78 1020.03 1020.22 1020.41 1020.48 1020.60 1020.73 1020.93
1014.23 1014.75 1015.76 1016.11 1016.92 1016.40 1015.65 1015.17 1014.74 1014.27 1013.21 1013.12 1013.00 1013.18 1013.14 1013.11 1013.26 1013.32 1013.58 1013.83 1014.53 1014.91 1015.12 1015.44 1015.76 1016.13 1016.53 1016.84 1017.19 1017.59 1017.90 1018.21 1018.46 1018.62 1018.70 1018.98 1018.95 1019.11 1019.28 1019.65 1019.98 1020.13 1020.31 1020.49 1020.62 1020.76 1020.94 1021.11 1021.17
1014.63 1015.13 1016.06 1016.72 1016.64 1016.17 1015.60 1015.05 1014.65 1014.53 1014.07 1013.47 1013.45 1013.53 1013.57 1013.50 1013.30 1013.50 1013.73 1014.09 1014.60 1015.13 1015.34 1015.65 1016.02 1016.34 1016.68 1016.95 1017.26 1017.72 1018.02 1018.32 1018.55 1018.74 1018.85 1019.06 1019.18 1019.27 1019.53 1020.01 1020.30 1020.45 1020.54 1020.72 1020.87 1021.06 1021.23 1021.36 1021.34
1015.12 1016.37 1016.24 1016.55 1016.40 1015.92 1015.48 1015.20 1014.67 1014.77 1014.28 1013.78 1013.78 1013.98 1013.94 1013.92 1013.74 1013.87 1014.04 1014.31 1014.65 1015.05 1015.47 1015.79 1016.25 1016.59 1016.81 1017.06 1017.44 1017.90 1018.18 1018.36 1018.59 1018.70 1018.94 1019.10 1019.34 1019.53 1019.84 1020.25 1020.55 1020.67 1020.80 1020.93 1021.13 1021.24 1021.44 1021.56 1021.59
1015.47 1016.03 1015.80 1015.99 1016.24 1015.97 1015.47 1015.31 1015.19 1015.24 1014.84 1014.26 1013.95 1014.34 1014.28 1014.21 1014.12 1014.20 1014.42 1014.68 1014.96 1015.25 1015.61 1015.94 1016.43 1016.77 1017.00 1017.28 1017.66 1017.98 1018.27 1018.43 1018.71 1018.77 1018.98 1019.22 1019.61 1019.94 1020.13 1020.49 1020.72 1020.82 1021.05 1021.16 1021.30 1021.44 1021.58 1021.74 1021.86
1015.56 1015.87 1016.45 1016.13 1015.91 1015.92 1015.59 1015.64 1015.56 1015.42 1015.01 1014.38 1014.31 1014.57 1014.23 1013.97 1014.27 1014.52 1014.90 1015.12 1015.27 1015.60 1015.81 1016.15 1016.50 1016.99 1017.28 1017.57 1017.79 1018.04 1018.32 1018.57 1018.88 1019.00 1019.26 1019.51 1019.93 1020.26 1020.40 1020.65 1020.81 1021.05 1021.15 1021.26 1021.31 1021.47 1021.73 1021.92 1022.14
1015.47 1015.95 1016.23 1015.99 1015.80 1015.62 1015.90 1016.02 1016.02 1015.48 1015.39 1014.94 1014.63 1014.54 1013.99 1013.81 1014.34 1014.75 1015.22 1015.54 1015.54 1015.83 1015.98 1016.14 1016.63 1017.09 1017.40 1017.75 1018.00 1018.18 1018.46 1018.72 1019.02 1019.30 1019.62 1019.94 1020.30 1020.59 1020.83 1020.94 1021.10 1021.32 1021.41 1021.44 1021.49 1021.50 1021.63 1021.95 1022.27
1015.66 1015.63 1015.73 1015.64 1015.68 1015.92 1016.37 1016.58 1016.64 1016.16 1015.98 1015.65 1015.42 1015.16 1014.67 1014.13 1014.42 1014.84 1015.18 1015.44 1015.59 1015.79 1015.99 1016.26 1016.57 1017.04 1017.43 1017.74 1018.14 1018.42 1018.65 1018.95 1019.28 1019.58 1019.88 1020.24 1020.54 1020.72 1020.90 1021.08 1021.25 1021.34 1021.52 1021.51 1021.55 1021.52 1021.69 1022.01 1022.55
1015.62 1015.37 1015.50 1016.14 1016.14 1016.05 1016.35 1017.03 1017.10 1017.01 1016.83 1016.65 1016.87 1016.34 1015.92 1015.09 1014.68 1015.02 1015.29 1015.43 1015.55 1015.73 1016.13 1016.37 1016.59 1017.07 1017.42 1017.73 1018.18 1018.56 1018.82 1019.14 1019.48 1019.76 1020.02 1020.36 1020.65 1020.84 1021.03 1021.27 1021.39 1021.53 1021.60 1021.74 1021.71 1021.69 1021.86 1022.13 1022.46
1015.71 1015.42 1015.43 1016.33 1016.60 1016.48 1016.63 1016.94 1017.25 1017.29 1016.93 1016.70 1016.55 1016.19 1015.87 1015.66 1015.08 1015.18 1015.25 1015.46 1015.79 1015.86 1016.06 1016.44 1016.65 1017.04 1017.41 1017.74 1018.06 1018.41 1018.84 1019.19 1019.53 1019.78 1020.10 1020.46 1020.73 1020.91 1021.16 1021.34 1021.45 1021.68 1021.73 1021.86 1021.82 1021.91 1022.01 1022.14 1022.35
1015.43 1015.29 1015.84 1016.22 1016.74 1017.07 1017.17 1017.34 1017.85 1016.81 1016.70 1016.61 1016.32 1015.65 1015.55 1015.74 1015.32 1015.20 1015.20 1015.52 1015.82 1016.08 1016.20 1016.40 1016.62 1017.03 1017.38 1017.78 1018.07 1018.40 1018.75 1019.05 1019.34 1019.70 1020.01 1020.33 1020.66 1020.88 1021.06 1021.22 1021.46 1021.60 1021.67 1021.78 1021.82 1021.95 1022.08 1022.19 1022.40
1015.34 1015.54 1016.28 1017.03 1017.08 1017.42 1017.49 1017.66 1018.13 1015.85 1016.22 1016.61 1016.43 1015.82 1015.86 1015.77 1015.49 1015.46 1015.44 1015.41 1015.61 1015.87 1016.16 1016.37 1016.63 1016.88 1017.32 1017.71 1018.03 1018.27 1018.53 1018.82 1019.19 1019.52 1019.73 1020.00 1020.29 1020.58 1020.83 1021.04 1021.26 1021.37 1021.41 1021.51 1021.64 1021.86 1022.05 1022.13 1022.23
1015.52 1016.29 1016.71 1017.01 1017.03 1017.75 1018.60 1018.47 1017.95 1016.66 1017.30 1017.17 1016.68 1016.19 1015.99 1015.62 1015.53 1015.19 1015.04 1015.37 1015.42 1015.54 1015.78 1016.28 1016.56 1016.78 1017.31 1017.56 1017.87 1018.12 1018.28 1018.60 1018.91 1019.11 1019.36 1019.60 1019.89 1020.21 1020.40 1020.70 1020.90 1020.92 1021.11 1021.32 1021.52 1021.74 1021.98 1022.06 1021.98
1016.00 1016.39 1017.06 1017.34 1017.68 1017.92 1018.54 1018.51 1017.70 1017.25 1017.92 1017.17 1016.96 1016.42 1016.06 1015.50 1015.29 1015.12 1015.09 1015.22 1015.43 1015.52 1015.75 1016.01 1016.35 1016.71 1017.05 1017.31 1017.54 1017.86 1018.17 1018.39 1018.56 1018.75 1019.00 1019.24 1019.49 1019.75 1020.11 1020.36 1020.44 1020.43 1020.81 1021.10 1021.36 1021.51 1021.83 1021.92 1022.05
1016.79 1016.81 1017.05 1017.61 1017.44 1017.54 1017.85 1017.63 1017.30 1017.54 1017.93 1017.46 1017.32 1016.86 1016.20 1015.73 1015.48 1015.26 1015.02 1015.18 1015.32 1015.55 1015.62 1015.92 1016.16 1016.49 1016.80 1017.02 1017.29 1017.61 1017.87 1018.17 1018.26 1018.47 1018.66 1018.84 1019.05 1019.27 1019.59 1019.78 1019.86 1020.13 1020.47 1020.79 1021.03 1021.26 1021.54 1021.72 1021.75
1017.02 1017.12 1017.12 1017.16 1017.35 1017.39 1017.61 1017.07 1017.24 1017.84 1018.17 1017.59 1017.19 1016.80 1016.32 1015.66 1015.21 1015.26 1015.23 1015.33 1015.52 1015.62 1015.66 1015.86 1016.13 1016.40 1016.70 1017.02 1017.30 1017.62 1017.81 1017.93 1017.98 1018.12 1018.25 1018.38 1018.56 1018.75 1019.08 1019.29 1019.50 1019.79 1020.17 1020.51 1020.76 1021.02 1021.22 1021.33 1021.36
1017.14 1017.19 1017.24 1017.00 1016.63 1017.10 1017.43 1017.29 1017.38 1017.76 1018.08 1017.44 1016.49 1016.19 1015.92 1015.77 1015.21 1015.31 1015.44 1015.39 1015.61 1016.03 1016.12 1016.12 1016.22 1016.42 1016.77 1017.11 1017.47 1017.78 1017.76 1017.75 1017.76 1017.67 1017.78 1017.94 1018.06 1018.23 1018.63 1018.88 1019.15 1019.43 1019.79 1019.91 1020.20 1020.56 1020.83 1020.96 1021.04
1017.12 1017.25 1017.34 1017.11 1016.76 1016.90 1016.81 1016.78 1016.67 1016.57 1016.44 1016.90 1016.36 1015.57 1015.54 1015.60 1015.77 1015.89 1015.95 1015.92 1015.88 1016.00 1016.30 1016.53 1016.58 1016.72 1016.83 1017.03 1017.20 1017.34 1017.44 1017.43 1017.39 1017.41 1017.57 1017.66 1017.77 1017.96 1018.28 1018.45 1018.69 1018.90 1019.34 1019.58 1019.82 1020.19 1020.53 1020.60 1020.63
1017.45 1017.39 1017.58 1017.45 1017.21 1017.17 1017.00 1016.66 1015.99 1015.52 1015.53 1015.55 1015.57 1015.22 1015.45 1015.74 1016.00 1016.36 1016.48 1016.31 1016.36 1016.43 1016.45 1016.54 1016.68 1016.91 1017.09 1017.19 1017.36 1017.51 1017.60 1017.62 1017.61 1017.60 1017.65 1017.54 1017.57 1017.67 1017.78 1017.87 1018.06 1018.36 1018.84 1019.12 1019.35 1019.65 1019.97 1020.17 1020.27
1017.47 1017.40 1017.63 1017.93 1018.13 1018.10 1017.39 1016.68 1015.62 1015.21 1014.90 1014.71 1014.20 1014.50 1014.98 1015.46 1015.82 1016.33 1016.84 1016.77 1016.72 1016.70 1016.71 1016.72 1016.88 1017.03 1017.16 1017.22 1017.36 1017.64 1017.84 1018.05 1018.03 1018.01 1017.98 1017.92 1017.84 1017.77 1017.74 1017.76 1017.83 1017.96 1018.17 1018.59 1018.75 1019.06 1019.28 1019.68 1019.89
1017.67 1017.43 1017.82 1018.32 1018.85 1018.84 1018.39 1018.13 1015.60 1014.89 1014.19 1013.18 1013.70 1014.52 1014.91 1015.23 1015.60 1016.13 1016.71 1016.91 1016.87 1016.97 1017.04 1017.08 1017.18 1017.38 1017.51 1017.49 1017.56 1017.79 1018.03 1018.26 1018.25 1018.28 1018.28 1018.29 1018.24 1018.22 1018.21 1018.02 1017.81 1017.79 1017.84 1018.06 1018.27 1018.61 1018.93 1019.19 1019.42
1017.82 1018.06 1018.62 1019.33 1019.83 1019.79 1018.71 1018.62 1016.15 1014.86 1013.73 1013.31 1013.35 1013.55 1013.89 1014.68 1015.17 1015.96 1016.65 1017.09 1017.30 1017.36 1017.40 1017.52 1017.70 1017.99 1018.07 1018.09 1018.19 1018.32 1018.51 1018.64 1018.70 1018.74 1018.75 1018.73 1018.68 1018.72 1018.65 1018.39 1018.18 1017.77 1017.68 1017.81 1017.95 1018.24 1018.51 1018.76 1018.99
1018.20 1018.81 1019.86 1020.70 1020.85 1020.15 1019.18 1018.93 1015.70 1014.41 1013.44 1013.30 1013.28 1013.48 1013.77 1014.35 1015.08 1015.63 1016.42 1017.02 1017.34 1017.60 1017.74 1017.90 1018.12 1018.48 1018.62 1018.71 1018.80 1018.93 1019.10 1019.22 1019.37 1019.42 1019.45 1019.34 1019.22 1019.16 1019.14 1018.87 1018.76 1018.49 1018.10 1017.84 1017.66 1017.99 1018.32 1018.60 1018.76
1018.78 1019.24 1019.99 1020.65 1021.22 1020.62 1019.84 1017.76 1014.83 1013.74 1013.30 1013.20 1013.08 1013.46 1013.98 1014.61 1015.05 1015.56 1016.19 1016.81 1017.31 1017.60 1017.89 1018.09 1018.36 1018.77 1018.99 1019.18 1019.35 1019.42 1019.56 1019.79 1020.02 1020.10 1020.04 1020.01 1019.87 1019.74 1019.55 1019.35 1019.27 1019.17 1018.82 1018.40 1018.11 1018.30 1018.55 1018.78 1018.98
1019.14 1019.48 1019.96 1020.78 1021.69 1021.27 1018.99 1016.74 1014.92 1013.63 1013.70 1013.43 1013.53 1013.74 1013.98 1014.43 1014.96 1015.62 1016.27 1016.88 1017.41 1017.77 1018.03 1018.26 1018.59 1019.10 1019.48 1019.65 1019.81 1020.03 1020.13 1020.24 1020.42 1020.43 1020.33 1020.32 1020.23 1019.97 1019.84 1019.79 1019.66 1019.53 1019.28 1019.02 1018.76 1018.88 1019.06 1019.25 1019.55
1018.75 1019.14 1020.05 1020.94 1021.50 1021.09 1018.92 1017.67 1015.63 1014.13 1013.50 1013.90 1013.88 1014.10 1014.33 1014.66 1015.41 1015.92 1016.46 1017.09 1017.65 1018.01 1018.30 1018.55 1018.78 1019.26 1019.77 1020.04 1020.20 1020.48 1020.65 1020.68 1020.71 1020.70 1020.78 1020.76 1020.62 1020.36 1020.27 1020.16 1020.03 1019.92 1019.81 1019.61 1019.47 1019.52 1019.65 1019.87 1020.12
1018.76 1018.92 1019.48 1019.87 1020.65 1020.63 1019.70 1016.70 1014.46 1014.15 1013.94 1013.80 1013.83 1013.91 1014.41 1014.91 1015.43 1016.30 1017.01 1017.37 1017.84 1018.34 1018.58 1018.90 1019.18 1019.50 1019.88 1020.22 1020.48 1020.62 1020.82 1020.93 1020.96 1021.06 1021.18 1021.18 1021.02 1020.83 1020.71 1020.66 1020.58 1020.47 1020.41 1020.28 1020.12 1020.08 1020.19 1020.38 1020.68
1017.82 1018.26 1018.93 1019.51 1020.33 1020.54 1019.82 1015.79 1014.35 1014.30 1014.12 1013.83 1013.80 1013.97 1014.24 1014.84 1015.61 1016.42 1016.98 1017.53 1018.06 1018.44 1018.84 1019.14 1019.40 1019.65 1020.03 1020.41 1020.71 1020.95 1021.02 1021.14 1021.29 1021.44 1021.45 1021.38 1021.38 1021.29 1021.20 1021.11 1020.99 1020.97 1020.98 1020.90 1020.80 1020.76 1020.79 1020.94 1021.18
Thickness
5667 5674 5678 5680 5655 5647 5652 5672 5690 5701 5713 5728 5737 5737 5736 5741 5740 5725 5757 5760 5762 5762 5760 5757 5753 5751 5749 5748 5746 5744 5743 5741 5740 5739 5739 5738 5737 5736 5734 5732 5732 5730 5729 5727 5725 5722 5720 5718 5715
5658 5665 5666 5656 5636 5632 5648 5675 5687 5695 5709 5720 5729 5734 5735 5732 5746 5745 5749 5756 5759 5758 5757 5754 5752 5750 5747 5746 5743 5742 5740 5739 5738 5736 5736 5735 5734 5733 5731 5729 5728 5726 5724 5722 5720 5718 5715 5713 5711
5649 5654 5647 5635 5623 5633 5654 5676 5684 5695 5707 5716 5722 5731 5732 5732 5742 5745 5754 5757 5755 5753 5754 5752 5749 5748 5746 5744 5742 5740 5738 5737 5736 5733 5733 5732 5731 5730 5729 5726 5725 5723 5720 5718 5715 5713 5711 5709 5707
5635 5638 5635 5623 5627 5648 5664 5673 5682 5688 5707 5712 5719 5718 5731 5738 5741 5749 5754 5755 5751 5749 5750 5748 5747 5745 5743 5742 5741 5738 5736 5735 5733 5731 5731 5728 5729 5727 5726 5722 5720 5719 5716 5714 5712 5710 5707 5705 5703
5625 5625 5612 5615 5630 5648 5659 5672 5679 5682 5691 5704 5711 5711 5719 5731 5741 5746 5750 5750 5747 5745 5745 5744 5742 5742 5741 5740 5739 5736 5734 5732 5730 5729 5729 5727 5726 5725 5722 5719 5715 5714 5713 5710 5708 5706 5704 5701 5699
5608 5604 5601 5612 5626 5647 5655 5664 5674 5677 5685 5698 5704 5706 5713 5726 5733 5738 5743 5744 5742 5743 5741 5740 5739 5739 5739 5738 5736 5731 5730 5730 5729 5728 5726 5725 5723 5721 5719 5714 5711 5710 5708 5707 5705 5703 5699 5697 5696
5601 5601 5611 5621 5624 5637 5648 5654 5660 5666 5670 5687 5702 5697 5708 5717 5727 5732 5736 5738 5738 5737 5737 5737 5735 5735 5735 5734 5732 5729 5727 5727 5725 5725 5724 5722 5719 5716 5714 5710 5708 5707 5704 5703 5702 5699 5697 5695 5693
5595 5599 5596 5608 5622 5629 5640 5646 5658 5662 5669 5687 5695 5689 5700 5716 5722 5725 5727 5730 5733 5732 5732 5732 5733 5730 5730 5729 5729 5728 5726 5724 5722 5721 5719 5717 5714 5711 5709 5707 5705 5703 5702 5701 5699 5697 5694 5691 5689
5594 5588 5588 5600 5617 5631 5630 5637 5647 5661 5667 5676 5689 5695 5708 5716 5718 5718 5718 5721 5726 5727 5729 5729 5728 5726 5725 5725 5724 5724 5723 5721 5720 5718 5716 5713 5711 5708 5705 5702 5701 5699 5698 5697 5695 5694 5693 5689 5685
5580 5588 5597 5608 5618 5618 5622 5628 5633 5648 5651 5663 5673 5686 5698 5710 5713 5712 5713 5715 5719 5722 5724 5725 5724 5722 5722 5721 5720 5720 5719 5718 5716 5715 5712 5709 5707 5706 5703 5701 5698 5696 5694 5693 5692 5692 5690 5686 5681
5581 5590 5597 5594 5602 5614 5620 5619 5628 5632 5640 5646 5651 5667 5682 5695 5705 5708 5710 5711 5713 5717 5719 5720 5720 5719 5718 5718 5717 5715 5715 5713 5712 5711 5709 5706 5704 5703 5701 5698 5696 5694 5692 5691 5689 5689 5686 5682 5678
5574 5587 5593 5590 5597 5608 5614 5617 5616 5624 5636 5646 5656 5668 5680 5686 5694 5699 5704 5704 5707 5711 5715 5717 5716 5716 5715 5714 5713 5712 5710 5709 5708 5707 5705 5702 5701 5699 5697 5695 5693 5690 5689 5687 5686 5684 5681 5679 5676
5573 5583 5585 5587 5591 5593 5603 5607 5605 5622 5634 5643 5655 5669 5676 5680 5688 5695 5699 5699 5703 5705 5709 5712 5712 5711 5710 5710 5710 5708 5706 5705 5704 5703 5701 5699 5697 5696 5694 5692 5689 5687 5686 5684 5683 5680 5677 5675 5672
5569 5576 5575 5575 5585 5586 5594 5600 5600 5634 5634 5636 5647 5661 5668 5674 5681 5685 5691 5696 5700 5703 5704 5707 5708 5707 5706 5705 5705 5705 5704 5702 5701 5699 5699 5697 5695 5693 5691 5689 5687 5685 5684 5682 5680 5677 5674 5671 5669
5566 5561 5564 5570 5580 5579 5579 5583 5596 5619 5618 5624 5637 5649 5659 5670 5675 5682 5689 5691 5695 5699 5702 5701 5702 5702 5702 5701 5701 5701 5701 5699 5699 5698 5697 5695 5693 5691 5690 5687 5685 5684 5682 5679 5676 5673 5669 5666 5665
5556 5560 5556 5563 5570 5574 5575 5575 5600 5606 5603 5616 5625 5640 5650 5663 5672 5678 5683 5687 5691 5694 5696 5698 5699 5698 5698 5698 5698 5698 5698 5697 5697 5696 5695 5693 5692 5690 5687 5685 5683 5683 5679 5675 5671 5668 5664 5662 5659
5542 5549 5553 5555 5568 5569 5574 5579 5595 5598 5597 5607 5616 5627 5640 5650 5661 5671 5678 5684 5686 5687 5691 5692 5694 5694 5694 5695 5695 5695 5694 5693 5693 5692 5692 5691 5690 5688 5686 5684 5682 5678 5675 5671 5668 5665 5661 5657 5655
5543 5545 5552 5555 5563 5567 5565 5578 5586 5585 5589 5600 5609 5617 5629 5643 5654 5662 5670 5676 5679 5681 5684 5686 5688 5689 5689 5688 5688 5687 5687 5688 5688 5688 5688 5688 5687 5686 5684 5682 5679 5675 5672 5667 5663 5660 5656 5654 5651
5540 5545 5550 5559 5569 5564 5563 5567 5573 5576 5578 5589 5609 5620 5624 5634 5648 5655 5661 5665 5667 5669 5672 5676 5679 5681 5682 5681 5680 5679 5681 5683 5685 5686 5685 5684 5684 5683 5680 5678 5675 5672 5668 5666 5662 5657 5653 5649 5646
5542 5543 5548 5556 5564 5562 5565 5568 5577 5586 5591 5593 5604 5621 5619 5627 5636 5641 5647 5654 5658 5661 5664 5667 5669 5671 5673 5675 5676 5677 5677 5679 5680 5681 5680 5680 5679 5678 5676 5674 5672 5668 5665 5661 5657 5653 5648 5645 5641
5535 5538 5542 5549 5555 5556 5561 5565 5578 5593 5595 5599 5608 5616 5619 5622 5626 5628 5633 5641 5645 5651 5655 5659 5661 5662 5664 5666 5667 5668 5670 5672 5673 5674 5674 5674 5674 5673 5672 5671 5669 5665 5661 5658 5653 5649 5644 5641 5637
5535 5544 5543 5545 5542 5540 5560 5556 5572 5590 5594 5600 5618 5621 5621 5624 5624 5625 5625 5632 5638 5642 5645 5649 5652 5653 5654 5657 5659 5660 5660 5661 5662 5663 5663 5664 5665 5665 5665 5664 5663 5660 5656 5652 5649 5645 5642 5636 5633
5535 5544 5543 5541 5533 5539 5546 5541 5577 5583 5591 5618 5620 5616 5615 5617 5620 5621 5620 5624 5629 5631 5635 5638 5641 5643 5645 5647 5649 5650 5651 5650 5651 5652 5652 5653 5653 5653 5653 5654 5653 5652 5650 5647 5644 5640 5635 5630 5627
5534 5535 5532 5523 5522 5529 5539 5538 5563 5580 5595 5606 5610 5613 5620 5614 5615 5614 5613 5614 5616 5620 5624 5627 5628 5629 5631 5635 5637 5638 5639 5640 5641 5641 5642 5642 5643 5642 5642 5642 5642 5643 5641 5640 5637 5633 5629 5625 5622
5529 5529 5504 5503 5522 5526 5534 5530 5577 5586 5594 5598 5606 5608 5608 5609 5607 5611 5609 5606 5606 5608 5611 5614 5616 5616 5618 5620 5622 5624 5625 5626 5627 5628 5628 5629 5630 5630 5629 5630 5629 5629 5630 5629 5628 5626 5622 5618 5615
5523 5523 5505 5517 5513 5513 5523 5535 5575 5591 5594 5597 5602 5601 5600 5597 5597 5602 5602 5598 5597 5599 5600 5602 5604 5603 5605 5606 5608 5610 5612 5612 5611 5612 5614 5614 5615 5616 5617 5618 5616 5616 5616 5616 5615 5613 5609 5606 5603
5511 5507 5515 5505 5483 5476 5527 5546 5571 5584 5584 5588 5590 5591 5591 5590 5591 5591 5589 5588 5587 5588 5589 5591 5592 5591 5591 5593 5595 5595 5596 5598 5598 5598 5600 5601 5602 5605 5605 5605 5605 5604 5604 5604 5603 5601 5598 5595 5591
5518 5514 5511 5495 5501 5507 5525 5529 5557 5581 5587 5581 5581 5578 5577 5581 5579 5578 5578 5577 5576 5577 5577 5579 5581 5580 5579 5579 5581 5581 5582 5584 5586 5587 5587 5588 5589 5592 5592 5592 5593 5592 5591 5591 5590 5588 5586 5582 5578
5513 5514 5508 5507 5494 5494 5514 5542 5556 5572 5576 5573 5573 5572 5570 5569 5569 5565 5562 5564 5564 5562 5564 5566 5568 5569 5569 5569 5570 5571 5572 5573 5574 5575 5575 5575 5577 5579 5579 5578 5578 5578 5577 5576 5576 5575 5573 5569 5565
5519 5518 5514 5514 5507 5476 5462 5548 5566 5563 5559 5559 5563 5567 5566 5565 5559 5555 5554 5553 5552 5553 5553 5554 5556 5559 5559 5558 5558 5559 5561 5561 5562 5562 5563 5564 5564 5565 5565 5565 5564 5563 5562 5562 5561 5561 5560 5557 5553